sat.trackr.live / text

‹ back to catalog

EUTELSAT 9B

NORAD 41310 · 2016-005A

PAYLOAD ACTIVE UNKNOWN

§ Identity

Operator
Country
EUTE
Launch date
2016-01-29
Launch site
TYMSC
Launch vehicle
Mass (kg)
RCS (m²)
39.91

Purposes: comms

External: N2YO · Heavens-Above · Gunter

§ Orbital elements

Epoch: 2026-05-25T02:04:32.409408Z

Period
1,436.07 min
Inclination
0.0820°
Eccentricity
0.0002447
Mean motion
1.00273685 rev/d
Perigee alt
35,775.7 km
Apogee alt
35,796.4 km
Semi-major
42,164.2 km
B*
0.0000e+0
RAAN
78.0468°
Arg perigee
306.1666°
Mean anomaly
258.6009°
Rev number
3,788

§ Raw data

EUTELSAT 9B1 41310U 16005A   26145.08648622  .00000060  00000+0  00000+0 0  99992 41310   0.0820  78.0468 0002447 306.1666 258.6009  1.00273685 37887

JSON: /api/v1/satellites/41310 · /tle

For live sub-satellite position, see the globe view (requires WebGL).

§ Visibility from observer

Set your observer location to see the next 7 days of passes ≥ 10°. The values pass through the URL so the page stays shareable.

No JS? Fill the form by hand. The geolocation button needs JavaScript.